Regional Weather Roundup
Issued by NWS Upton, NY

Current Version | Previous Version | Text Only | Print | Product List | Glossary On
Versions: 1 2 3 4 5 6 7 8 9 10 11 12 13 14 15 16 17 18 19 20 21 22 23 24 25 26 27 28 29 30 31 32 33 34 35 36 37 38 39 40 41 42 43 44 45 46 47 48 49 50
000 ASUS41 KOKX 232008 RWROKX REGIONAL WEATHER ROUNDUP NATIONAL WEATHER SERVICE NEW YORK NY 400 PM EDT SAT MAY 23 2015 NOTE: "FAIR" INDICATES FEW OR NO CLOUDS BELOW 12,000 FEET WITH NO SIGNIFICANT WEATHER AND/OR OBSTRUCTIONS TO VISIBILITY. NYZ071-072-176-178-NJZ106-104-232100- NEW YORK CITY METRO AREA CITY SKY/WX TMP DP RH WIND PRES REMARKS CENTRAL PARK SUNNY 68 26 20 VRB6 30.38F LAGUARDIA APRT SUNNY 67 24 19 N7 30.35F KENNEDY INTL SUNNY 66 26 22 SW16 30.37F NEWARK/LIBERTY MOSUNNY 70 25 18 NW8G18 30.35F BRNX BOT. GARD N/A 66 28 24 N3 30.37R TETERBORO SUNNY 70 24 17 SW14 30.34F $$ NYZ177-179-078>081-232100- LONG ISLAND NEW YORK CITY SKY/WX TMP DP RH WIND PRES REMARKS FARMINGDALE SUNNY 66 27 23 NW8 30.36F ISLIP SUNNY 65 25 22 NW13 30.35F SHIRLEY SUNNY 64 24 21 W10 30.37F WESTHAMPTON SUNNY 59 36 42 SW10 30.38S MONTAUK POINT N/A 61 28 28 SW8G20 30.37F $$ NYZ052-065-067-232100- HUDSON VALLEY CITY SKY/WX TMP DP RH WIND PRES REMARKS WHITE PLAINS SUNNY 64 28 25 NW7 30.34F NEWBURGH SUNNY 64 32 29 W8 30.34F MONTGOMERY SUNNY 66 29 24 W8G17 30.33F POUGHKEEPSIE SUNNY 66 25 21 MISG 30.32F ALBANY SUNNY 64 26 23 NW14 30.34F $$ NJZ001-105-106-008-010-013-015-019>022-104-232100- NEW JERSEY CITY SKY/WX TMP DP RH WIND PRES REMARKS NEWARK/LIBERTY MOSUNNY 70 25 18 NW8G18 30.35F TETERBORO SUNNY 70 24 17 SW14 30.34F CALDWELL SUNNY 68 25 19 VRB7 30.35F MORRISTOWN SUNNY 68 27 21 W6G14 30.37F SOMERVILLE SUNNY 68 27 21 VRB5 30.34F SUSSEX SUNNY 67 25 20 SW8 30.35F ANDOVER N/A 66 26 22 VRB5 30.35F TRENTON SUNNY 67 27 22 W6 30.37F MILLVILLE SUNNY 67 33 28 VRB6 30.39F ATLANTIC CITY SUNNY 66 40 38 S12 30.38F WRIGHTSTOWN SUNNY 68 27 21 VRB3 30.36F TOMS RIVER SUNNY N/A N/A N/A CALM 30.38F BELMAR SUNNY 61 36 39 SE9 30.39S $$ PAZ047>061-062-071-232100- EASTERN PENNSYLVANIA CITY SKY/WX TMP DP RH WIND PRES REMARKS PHILADELPHIA SUNNY 69 28 21 SW12 30.39F ALLENTOWN SUNNY 69 25 19 W8 30.37F SCRANTON SUNNY 67 26 21 NW5 30.36F $$ CTZ002-004>006-009-010-012-RIZ004-006-007-MAZ004-011-015-232100- SOUTHERN NEW ENGLAND IN CT CITY SKY/WX TMP DP RH WIND PRES REMARKS BRADLEY INTL SUNNY 66 24 20 W14 30.31F HARTFORD SUNNY 64 22 20 W10G22 30.32F DANBURY SUNNY 64 29 26 VRB5 30.35F WTRBRY/OXFORD SUNNY 61 27 27 NW9G18 30.35F BRIDGEPORT SUNNY 63 36 36 SW15 30.35F MERIDEN SUNNY 64 23 21 VRB5 30.33F NEW HAVEN SUNNY 59 37 44 S14 30.35F CHESTER FAIR 63 23 22 NW7 30.34F GROTON SUNNY 56 36 47 SW16G28 30.33F WILLIMANTIC SUNNY 63 23 21 W12G18 30.32F IN RI CITY SKY/WX TMP DP RH WIND PRES REMARKS PROVIDENCE SUNNY 64 23 21 NW13G22 30.31F BLOCK ISLAND SUNNY 57 36 44 W13 30.36S WESTERLY SUNNY 57 31 37 W15G25 30.34F IN MA CITY SKY/WX TMP DP RH WIND PRES REMARKS BOSTON SUNNY 64 20 18 W10 30.28F WORCESTER SUNNY 60 19 20 W12 30.30F WESTFIELD SUNNY 66 21 18 W16G26 30.31F PROVINCETOWN SUNNY 57 28 33 NW7 30.31S NANTUCKET SUNNY 56 33 42 W21G28 30.34S $$ ANZ330-335-338-340-345-350-353-355-232100- COASTAL MARINE OBSERVATIONS STATION/POSITION TIME SKY/WX TEMP WIND PRES VSBY WAVE AIR SEA DIR/SP/G HT/PER (UTC) (F) (DEG/KT/KT) (MB) (MI) (FT/S) NY HARB ENTRANCE 1950 56 57 190/ 10/ 12 1028.5 1/ 9 4S FIRE IS 1903 54 N/A 2/ 8 20S FIRE ISLAND 1950 54 56 240/ 4/ 6 1029.2 2/ 8 GREAT SOUTH BAY 1915 56 64 230/ 12/ 17 N/A 23SW MTP 1950 52 53 240/ 12/ 14 1028.5 2/ 8 HUDSON CANYON NOT AVBL KINGS POINT 1900 62 54 110/ 2/ 4 1027.8 CENTRAL LI SOUND 1900 53 51 230/ 12/ 14 N/A EASTERN LI SOUND 1900 52 250/ 16/ 19 N/A ROBBINS REEF 1900 62 280/ 3/ 5 1027.4 $$ >>>>>>>>>>>>>>>>>>>>>>>>>>>> KEY <<<<<<<<<<<<<<<<<<<<<<<<<<< > < > SKY/WX - SKY CONDITION/PRESENT WEATHER < > TMP - TEMPERATURE IN FAHRENHEIT < > DP - DEWPOINT IN FAHRENHEIT < > RH - RELATIVE HUMIDITY IN PERCENT < > WIND - DIRECTION AND SPEED IN MPH < > PRES - MEAN SEA LEVEL PRESSURE IN INCHES OF HG < > WCI - WIND CHILL INDEX < > VSB - VISIBILITY IN MILES < > HX - HEAT INDEX < > TC - TEMPERATURE IN CELSIUS < > VRB - VARIABLE WIND DIRECTION < > < >>>>>>>>>>>>>>>>>>>>>>>>>>>> KEY <<<<<<<<<<<<<<<<<<<<<<<<<<<

USA.gov is the U.S. government's official web portal to all federal, state and local government web resources and services.